星链-6124 (STARLINK-6124 )

导读

STARLINK-6124是美国SpaceX星链星座中的一颗卫星,于2023年3月29日发射升空。它隶属于Starlink项目,该项目旨在为全球提供高速低延迟互联网覆盖,尤其服务偏远地区与网络基础设施薄弱区域。作为星链低轨卫星互联网星座的组网卫星,它运行在近地轨道,依靠卫星间链路实现数据传输,补充了星座的全球服务能力,推进星链网络的覆盖广度与容量提升。

Basic Information
目录编号:
56126
目录名称:
STARLINK-6124
国际标识:
2023-046AL
轨道中心:
EARTH
卫星名称:
星链-6124
卫星全名:
星链-6124 (STARLINK-6124 )
卫星状态:
在轨 (已飞行1174 天)
发射日期:
2023-03-29 UTC
国别 :
美国 (US)
星等 :
--
Orbit Information
数据来源 国际轨道数据 AOE轨道数据
星历时间 2026-06-14T11:45:44+0800
20小时前
查看轨道信息
2026-06-09T23:00:00+0800
5天前
查看轨道信息
半长轴 6861.199km 6861.235km
偏心率 0.0001752 0.0000928
轨道倾角 43.008° 43.000°
近地点辐角 272.457° 230.643°
升交点赤经 322.190° 347.783°
平近点角 87.609° 18.768°
近地点 481.859km 482.461km
远地点 484.265km 483.735km
周期 94.267分钟 94.268分钟
每日圈数 15.275757 15.275638
Detailed Information
固有亮度:
5
最大亮度:
2.5
卫星平台:
Starlink v1.5
覆盖范围:
全球
运营商:
太空探索技术公司
运营商所在国:
美国
制造商(研发单位):
太空探索技术公司
制造商所在国:
美国
使用方式:
暂无
Satellite Introduction
星链(Starlink)计划是由太空探索技术公司(SpaceX)提出的一个巨型低轨卫星互联网星座项目,计划在2019年至2024年间在太空搭建由约1.2万颗卫星组成的“星链”网络,其中1584颗将部署在地球上空550千米处的近地轨道,并从2020年开始工作。该卫星仍在工作。
2D Orbit Map
3D Orbit Map
Orbit Altitude Analysis Chart
Orbit Inclination Analysis Chart
Orbit Comprehensive Analysis Chart
View Comprehensive Chart